Salina, KS

5:24 AM CDT on August 24, 2017 (GMT -0500)
Salina Municipal

Weather History for KSLN - October, 2013

Change the Weather History Date:

Sunday, October 6, 2013

  Actual Average Record
Temperature  
Mean Temperature 57 °F 61 °F  
Max Temperature 70 °F 73 °F 94 °F (1963)
Min Temperature 44 °F 50 °F 26 °F (1952)
Degree Days  
Heating Degree Days 8 6  
Month to date heating degree days 18 32  
Since 1 July heating degree days 30 84  
Cooling Degree Days 0 2  
Month to date cooling degree days 35 14  
Year to date cooling degree days 1730 1626  
Growing Degree Days 7 (Base 50)    
Moisture  
Dew Point 31 °F    
Average Humidity 39    
Maximum Humidity 62    
Minimum Humidity 15    
Precipitation  
Precipitation 0.00 in 0.08 in 1.38 in (1967)
Month to date precipitation 0.03 0.52  
Year to date precipitation 27.90 27.56  
Sea Level Pressure  
Sea Level Pressure 30.01 in    
Wind  
Wind Speed 14 mph (WNW)    
Max Wind Speed 28 mph    
Max Gust Speed 36 mph    
Visibility 10 miles    
Events      
T = Trace of Precipitation, MM = Missing Value Source: NWS Daily Summary

Daily Weather History Graph

Daily Weather History Graph

Search for Another Location

Airport or City:

Trip Planner

Search our weather history database for the weather conditions in past years. The results will help you decide how hot, cold, wet, or windy it might be!

Date:

Astronomy

Oct. 06, 2013 Rise Set
Actual Time 7:31 AM CDT 7:05 PM CDT
Civil Twilight 7:04 AM CDT 7:31 PM CDT
Nautical Twilight 6:34 AM CDT 8:02 PM CDT
Astronomical Twilight 6:03 AM CDT 8:33 PM CDT
Moon 9:15 AM CDT (10/6) 8:07 PM CDT (10/6)
Length of Visible Light 12h 26m
Length of Day
11h 33m
Waxing Crescent, 3% of the Moon is Illuminated
Oct 6
Waxing Crescent
Oct 11
First Quarter
Oct 18
Full
Oct 26
Last Quarter
Nov 3
New

Hourly Weather History & Observations

Time (CDT) Temp. Windchill Dew Point Humidity Pressure Visibility Wind Dir Wind Speed Gust Speed Precip Events Conditions
12:53 AM 46.9 °F - 30.9 °F 54% 30.00 in 10.0 mi West 11.5 mph - N/A   Clear
1:53 AM 44.1 °F 40.8 °F 32.0 °F 63% 29.99 in 10.0 mi West 5.8 mph - N/A   Partly Cloudy
2:53 AM 48.9 °F - 33.1 °F 54% 29.98 in 10.0 mi NW 17.3 mph 26.5 mph N/A   Mostly Cloudy
3:53 AM 48.0 °F - 32.0 °F 54% 29.97 in 10.0 mi WNW 15.0 mph 21.9 mph N/A   Partly Cloudy
4:53 AM 48.0 °F - 35.1 °F 61% 29.97 in 10.0 mi WNW 17.3 mph - N/A   Partly Cloudy
5:53 AM 48.0 °F - 34.0 °F 58% 29.99 in 10.0 mi West 13.8 mph - N/A   Overcast
6:53 AM 48.9 °F - 30.9 °F 50% 30.00 in 10.0 mi WNW 17.3 mph - N/A   Overcast
7:53 AM 48.0 °F - 32.0 °F 54% 30.00 in 10.0 mi WNW 13.8 mph - N/A   Scattered Clouds
8:53 AM 48.9 °F - 32.0 °F 52% 30.02 in 10.0 mi WNW 11.5 mph - N/A   Clear
9:53 AM 53.1 °F - 33.1 °F 47% 30.02 in 10.0 mi WNW 20.7 mph - N/A   Clear
10:53 AM 57.0 °F - 36.0 °F 45% 30.03 in 10.0 mi NW 23.0 mph - 0.00 in   Clear
11:53 AM 60.1 °F - 37.0 °F 42% 30.02 in 10.0 mi NW 20.7 mph - 0.00 in   Clear
12:53 PM 64.0 °F - 37.0 °F 37% 30.02 in 10.0 mi NW 18.4 mph 29.9 mph N/A   Partly Cloudy
1:53 PM 66.0 °F - 35.1 °F 32% 29.99 in 10.0 mi NW 20.7 mph 32.2 mph N/A   Clear
2:53 PM 68.0 °F - 32.0 °F 26% 29.96 in 10.0 mi NW 20.7 mph 31.1 mph N/A   Clear
3:53 PM 69.1 °F - 25.0 °F 19% 29.97 in 10.0 mi NW 20.7 mph 28.8 mph N/A   Clear
4:53 PM 70.0 °F - 19.9 °F 15% 29.97 in 10.0 mi NNW 21.9 mph 29.9 mph N/A   Clear
5:53 PM 70.0 °F - 19.9 °F 15% 29.98 in 10.0 mi NW 17.3 mph 27.6 mph N/A   Clear
6:53 PM 63.0 °F - 26.1 °F 25% 30.00 in 10.0 mi NW 9.2 mph - N/A   Clear
7:53 PM 57.9 °F - 27.0 °F 31% 30.03 in 10.0 mi West 6.9 mph - N/A   Clear
8:53 PM 54.0 °F - 28.9 °F 38% 30.05 in 9.0 mi WNW 6.9 mph - N/A   Clear
9:53 PM 51.1 °F - 28.9 °F 43% 30.06 in 10.0 mi WNW 8.1 mph - N/A   Clear
10:53 PM 51.1 °F - 28.9 °F 43% 30.08 in 10.0 mi Calm Calm - N/A   Clear
11:53 PM 50.0 °F - 28.9 °F 44% 30.08 in 10.0 mi Calm Calm - N/A   Clear